| time (UTC) | temp C | wind direction | speed KPH | gust KPH | rain 1hr cm | rain 24hr cm | rain mn cm | humidity % | barometer mb |
| 20260507030043 | 14 | 104 | 0.0 | 8.0 | 0.00 | 0.03 | 0.03 | 85 | 1017.1 |
| 20260507024539 | 14 | 91 | 1.6 | 8.0 | 0.00 | 0.03 | 0.03 | 85 | 1016.9 |
| 20260507023037 | 14 | 15 | 0.0 | 4.8 | 0.00 | 0.03 | 0.03 | 86 | 1016.7 |
| 20260507021537 | 14 | 271 | 0.0 | 4.8 | 0.00 | 0.03 | 0.03 | 87 | 1016.3 |
| 20260507020041 | 14 | 286 | 1.6 | 11.3 | 0.00 | 0.03 | 0.03 | 87 | 1016.1 |
| 20260507014532 | 14 | 133 | 0.0 | 4.8 | 0.00 | 0.03 | 0.03 | 86 | 1015.7 |
| 20260507013045 | 14 | 63 | 3.2 | 8.0 | 0.00 | 0.03 | 0.03 | 86 | 1015.5 |
| 20260507011533 | 14 | 113 | 0.0 | 6.4 | 0.00 | 0.03 | 0.03 | 86 | 1015.1 |
| 20260507010036 | 14 | 357 | 0.0 | 3.2 | 0.00 | 0.03 | 0.03 | 86 | 1015.0 |
| 20260507004529 | 14 | 276 | 0.0 | 4.8 | 0.00 | 0.13 | 0.03 | 86 | 1015.0 |
| 20260507003029 | 14 | 297 | 1.6 | 6.4 | 0.00 | 0.13 | 0.03 | 86 | 1014.6 |
| 20260507001530 | 14 | 117 | 1.6 | 6.4 | 0.00 | 0.13 | 0.03 | 86 | 1014.8 |
| 20260507000027 | 14 | 30 | 1.6 | 9.7 | 0.00 | 0.13 | 0.03 | 85 | 1014.5 |
| 20260506234534 | 14 | 89 | 1.6 | 6.4 | 0.00 | 0.13 | 0.03 | 85 | 1014.5 |
| 20260506233038 | 14 | 88 | 1.6 | 9.7 | 0.00 | 0.13 | 0.03 | 84 | 1014.2 |
| 20260506231529 | 14 | 160 | 1.6 | 6.4 | 0.00 | 0.13 | 0.03 | 84 | 1014.0 |
| 20260506230027 | 14 | 105 | 1.6 | 6.4 | 0.00 | 0.13 | 0.03 | 85 | 1014.2 |
| 20260506224523 | 14 | 109 | 1.6 | 8.0 | 0.00 | 0.13 | 0.03 | 86 | 1014.0 |
| 20260506223023 | 14 | 28 | 1.6 | 4.8 | 0.00 | 0.13 | 0.03 | 86 | 1013.9 |
| 20260506221522 | 15 | 111 | 1.6 | 8.0 | 0.00 | 0.13 | 0.03 | 85 | 1013.6 |
| 20260506220028 | 15 | 131 | 1.6 | 8.0 | 0.00 | 0.13 | 0.03 | 81 | 1013.4 |
| 20260506214521 | 15 | 45 | 1.6 | 8.0 | 0.00 | 0.13 | 0.03 | 80 | 1013.7 |
| 20260506213020 | 15 | 53 | 1.6 | 8.0 | 0.00 | 0.13 | 0.03 | 80 | 1013.5 |
| 20260506211526 | 16 | 75 | 0.0 | 6.4 | 0.00 | 0.13 | 0.03 | 79 | 1013.7 |
| 20260506210028 | 16 | 15 | 1.6 | 6.4 | 0.00 | 0.13 | 0.03 | 79 | 1013.5 |
| 20260506204519 | 16 | 52 | 3.2 | 9.7 | 0.00 | 0.13 | 0.03 | 79 | 1013.8 |
| 20260506203018 | 15 | 242 | 1.6 | 6.4 | 0.00 | 0.13 | 0.03 | 81 | 1013.8 |
| 20260506201518 | 15 | 41 | 1.6 | 4.8 | 0.00 | 0.13 | 0.03 | 83 | 1014.3 |
| 20260506200032 | 15 | 63 | 0.0 | 8.0 | 0.00 | 0.13 | 0.03 | 82 | 1014.9 |
| 20260506194517 | 14 | 282 | 1.6 | 9.7 | 0.00 | 0.13 | 0.03 | 83 | 1013.7 |
| 20260506193015 | 14 | 257 | 0.0 | 8.0 | 0.00 | 0.13 | 0.03 | 83 | 1014.3 |
| 20260506191515 | 14 | 128 | 0.0 | 8.0 | 0.00 | 0.13 | 0.03 | 83 | 1014.5 |
| 20260506190013 | 14 | 93 | 0.0 | 4.8 | 0.00 | 0.13 | 0.03 | 82 | 1014.1 |
| 20260506184513 | 14 | 37 | 0.0 | 4.8 | 0.00 | 0.13 | 0.03 | 82 | 1014.3 |
| 20260506183013 | 14 | 310 | 1.6 | 9.7 | 0.00 | 0.13 | 0.03 | 82 | 1013.9 |
| 20260506181516 | 14 | 137 | 3.2 | 8.0 | 0.00 | 0.13 | 0.03 | 82 | 1012.6 |
| 20260506180017 | 14 | 96 | 3.2 | 11.3 | 0.00 | 0.13 | 0.03 | 82 | 1012.4 |
| 20260506174511 | 13 | 153 | 3.2 | 6.4 | 0.00 | 0.13 | 0.03 | 85 | 1013.2 |
| 20260506173011 | 13 | 40 | 1.6 | 6.4 | 0.00 | 0.13 | 0.03 | 86 | 1014.3 |
| 20260506171510 | 13 | 100 | 3.2 | 9.7 | 0.00 | 0.13 | 0.03 | 85 | 1014.8 |
| 20260506170008 | 13 | 94 | 1.6 | 8.0 | 0.00 | 0.13 | 0.03 | 83 | 1013.6 |
| 20260506164508 | 14 | 99 | 1.6 | 11.3 | 0.03 | 0.13 | 0.03 | 82 | 1014.2 |
| 20260506163008 | 13 | 70 | 1.6 | 6.4 | 0.03 | 0.13 | 0.03 | 86 | 1014.3 |
| 20260506161507 | 12 | 106 | 1.6 | 9.7 | 0.03 | 0.13 | 0.03 | 87 | 1013.6 |
| 20260506160013 | 12 | 41 | 1.6 | 8.0 | 0.03 | 0.13 | 0.03 | 86 | 1014.8 |
| 20260506154505 | 12 | 117 | 1.6 | 8.0 | 0.00 | 0.10 | 0.00 | 84 | 1015.0 |
| 20260506153004 | 12 | 258 | 0.0 | 3.2 | 0.00 | 0.10 | 0.00 | 82 | 1015.4 |
| 20260506151501 | 12 | 209 | 1.6 | 11.3 | 0.00 | 0.10 | 0.00 | 83 | 1014.6 |
| 20260506150059 | 12 | 333 | 0.0 | 6.4 | 0.00 | 0.10 | 0.00 | 83 | 1014.3 |
| 20260506144558 | 12 | 131 | 1.6 | 4.8 | 0.00 | 0.10 | 0.00 | 83 | 1014.4 |
| 20260506143056 | 12 | 141 | 0.0 | 8.0 | 0.00 | 0.10 | 0.00 | 84 | 1014.0 |
| 20260506141607 | 12 | 141 | 0.0 | 4.8 | 0.00 | 0.10 | 0.00 | 85 | 1013.9 |
| 20260506140050 | 12 | 118 | 0.0 | 6.4 | 0.00 | 0.10 | 0.00 | 84 | 1013.4 |
| 20260506134547 | 12 | 101 | 1.6 | 8.0 | 0.00 | 0.10 | 0.00 | 84 | 1013.5 |
| 20260506133045 | 12 | 134 | 1.6 | 8.0 | 0.00 | 0.10 | 0.00 | 84 | 1013.0 |
| 20260506131544 | 12 | 46 | 1.6 | 8.0 | 0.00 | 0.10 | 0.00 | 84 | 1013.1 |
| 20260506130042 | 12 | 94 | 3.2 | 8.0 | 0.00 | 0.10 | 0.00 | 84 | 1013.1 |
| 20260506124541 | 12 | 68 | 1.6 | 12.9 | 0.00 | 0.10 | 0.00 | 84 | 1012.8 |
| 20260506123042 | 12 | 91 | 3.2 | 8.0 | 0.00 | 0.10 | 0.00 | 83 | 1012.3 |
| 20260506121534 | 12 | 28 | 0.0 | 6.4 | 0.00 | 0.10 | 0.00 | 82 | 1012.7 |
| 20260506120055 | 12 | 113 | 1.6 | 8.0 | 0.00 | 0.10 | 0.00 | 81 | 1012.3 |
| 20260506114530 | 12 | 31 | 1.6 | 9.7 | 0.00 | 0.10 | 0.00 | 81 | 1011.7 |
| 20260506113029 | 12 | 91 | 3.2 | 8.0 | 0.00 | 0.10 | 0.00 | 80 | 1011.8 |
| 20260506111526 | 13 | 229 | 0.0 | 6.4 | 0.00 | 0.10 | 0.00 | 80 | 1011.4 |
| 20260506110025 | 13 | 166 | 0.0 | 8.0 | 0.00 | 0.10 | 0.00 | 79 | 1011.2 |
| 20260506104520 | 13 | 81 | 1.6 | 6.4 | 0.00 | 0.10 | 0.00 | 78 | 1010.8 |
| 20260506103027 | 13 | 120 | 1.6 | 6.4 | 0.00 | 0.10 | 0.00 | 78 | 1010.7 |
| 20260506101518 | 13 | 91 | 3.2 | 9.7 | 0.00 | 0.10 | 0.00 | 77 | 1010.4 |
| 20260506100014 | 13 | 6 | 1.6 | 6.4 | 0.00 | 0.10 | 0.00 | 77 | 1010.4 |
| 20260506094526 | 13 | 94 | 0.0 | 3.2 | 0.00 | 0.10 | 0.00 | 77 | 1010.3 |
| 20260506093016 | 13 | 20 | 1.6 | 6.4 | 0.00 | 0.10 | 0.00 | 76 | 1010.3 |
| 20260506091509 | 14 | 105 | 1.6 | 6.4 | 0.00 | 0.10 | 0.00 | 77 | 1010.0 |
| 20260506090006 | 14 | 91 | 1.6 | 6.4 | 0.00 | 0.10 | 0.00 | 77 | 1009.8 |
| 20260506084506 | 14 | 94 | 0.0 | 4.8 | 0.00 | 0.10 | 0.00 | 78 | 1009.8 |
| 20260506083004 | 14 | 75 | 0.0 | 6.4 | 0.00 | 0.10 | 0.00 | 78 | 1009.3 |
| 20260506081505 | 14 | 320 | 0.0 | 6.4 | 0.00 | 0.10 | 0.00 | 78 | 1009.6 |
| 20260506073104 | 15 | 86 | 1.6 | 6.4 | 0.00 | 0.10 | 0.00 | 77 | 1009.8 |
| 20260506071558 | 15 | 115 | 1.6 | 4.8 | 0.00 | 0.10 | 0.00 | 78 | 1009.7 |
| 20260506070115 | 15 | 30 | 0.0 | 6.4 | 0.00 | 0.10 | 0.00 | 78 | 1009.7 |
| 20260506061550 | 16 | 38 | 1.6 | 9.7 | 0.00 | 0.10 | 0.00 | 78 | 1009.4 |
| 20260506044549 | 18 | 93 | 1.6 | 6.4 | 0.00 | 0.10 | 0.10 | 80 | 1008.8 |
| 20260506043029 | 18 | 98 | 3.2 | 8.0 | 0.00 | 0.10 | 0.10 | 79 | 1008.7 |
| 20260506041526 | 19 | 182 | 3.2 | 8.0 | 0.00 | 0.10 | 0.10 | 79 | 1008.3 |
| 20260506040022 | 20 | 109 | 1.6 | 6.4 | 0.00 | 0.10 | 0.10 | 79 | 1008.4 |
| 20260506034519 | 20 | 304 | 0.0 | 4.8 | 0.00 | 0.10 | 0.10 | 80 | 1008.0 |
| 20260506033015 | 21 | 128 | 0.0 | 3.2 | 0.00 | 0.10 | 0.10 | 80 | 1007.8 |
| 20260506031517 | 21 | 307 | 1.6 | 6.4 | 0.00 | 0.10 | 0.10 | 79 | 1007.8 |